EW8926 Weather Reports


Display with metric or nautical units.
time (UTC)temp
F
wind
direction
speed
MPH
gust
MPH
rain 1hr
in
rain 24hr
in
rain mn
in
humidity
%
barometer
mb
20260906060604 69 104 1.0 2.0 0.00 0.00 0.00 89 1022.1
20260906060104 68 104 2.0 2.0 0.00 0.00 0.00 90 1022.1
20260906055604 68 104 2.0 2.0 0.00 0.00 0.00 90 1022.1
20260906055104 67 104 2.0 2.0 0.00 0.00 0.00 91 1021.8
20260906054104 67 104 2.0 2.0 0.00 0.00 0.00 92 1021.8
20260906053604 67 104 2.0 5.0 0.00 0.00 0.00 91 1021.5
20260906053103 67 114 1.0 3.0 0.00 0.00 0.00 92 1021.5
20260906052604 66 119 1.0 2.0 0.00 0.00 0.00 92 1021.5
20260906052104 66 119 2.0 2.0 0.00 0.00 0.00 91 1021.5
20260906051604 66 119 2.0 2.0 0.00 0.00 0.00 90 1021.5
20260906051104 67 119 1.0 2.0 0.00 0.00 0.00 90 1021.5
20260906050603 67 119 0.0 2.0 0.00 0.00 0.00 90 1021.2
20260906050104 67 119 0.0 2.0 0.00 0.00 0.00 90 1021.2
20260906045104 67 119 0.0 0.0 0.00 0.00 0.00 90 1021.0
20260906044104 67 119 0.0 0.0 0.00 0.00 0.00 90 1021.0
20260906042604 67 119 0.0 0.0 0.00 0.00 0.00 90 1021.0
20260906042104 67 119 0.0 2.0 0.00 0.00 0.00 90 1020.9
20260906041604 68 119 0.0 0.0 0.00 0.00 0.00 89 1020.9
20260906041103 68 119 0.0 1.0 0.00 0.00 0.00 89 1020.9
20260906040604 68 119 0.0 0.0 0.00 0.00 0.00 89 1020.8
20260906035604 68 119 0.0 0.0 0.00 0.00 0.00 88 1020.8
20260906035104 68 119 0.0 2.0 0.00 0.00 0.00 88 1020.6
20260906034603 68 119 0.0 0.0 0.00 0.00 0.00 88 1020.6
20260906034104 69 119 0.0 0.0 0.00 0.00 0.00 88 1020.6
20260906033604 69 119 0.0 2.0 0.00 0.00 0.00 88 1020.6
20260906033104 69 119 0.0 0.0 0.00 0.00 0.00 88 1020.6
20260906032604 69 119 0.0 0.0 0.00 0.00 0.00 88 1020.6
20260906032104 69 119 0.0 0.0 0.00 0.00 0.00 88 1020.4
20260906031604 69 119 0.0 0.0 0.00 0.00 0.00 88 1020.4
20260906030603 69 119 0.0 2.0 0.00 0.00 0.00 89 1020.4
20260906030104 69 119 1.0 2.0 0.00 0.00 0.00 89 1020.4
20260906025603 69 119 1.0 2.0 0.00 0.00 0.00 89 1020.4
20260906025104 69 119 2.0 2.0 0.00 0.00 0.00 89 1020.3
20260906024604 69 119 2.0 3.0 0.00 0.00 0.00 90 1020.3
20260906024103 69 117 2.0 5.0 0.00 0.00 0.00 90 1020.3
20260906023604 69 124 2.0 5.0 0.00 0.00 0.00 90 1020.2
20260906023104 68 101 2.0 2.0 0.00 0.00 0.00 90 1020.2
20260906022604 68 108 2.0 5.0 0.00 0.00 0.00 90 1020.2
20260906022104 68 114 1.0 5.0 0.00 0.00 0.00 90 1020.2
20260906021604 68 120 1.0 2.0 0.00 0.00 0.00 90 1020.2
20260906021104 69 120 0.0 2.0 0.00 0.00 0.00 90 1020.2
20260906020604 69 120 0.0 2.0 0.00 0.00 0.00 90 1020.3
20260906020104 69 120 0.0 2.0 0.00 0.00 0.00 90 1020.3
20260906015603 69 120 0.0 1.0 0.00 0.00 0.00 90 1020.3
20260906014104 69 120 1.0 2.0 0.00 0.00 0.00 89 1020.3
20260906013603 69 120 1.0 2.0 0.00 0.00 0.00 89 1020.3
20260906013104 69 120 1.0 2.0 0.00 0.00 0.00 88 1020.3
20260906012604 69 120 1.0 2.0 0.00 0.00 0.00 88 1020.3
20260906012104 70 120 1.0 2.0 0.00 0.00 0.00 88 1020.2
20260906011604 70 120 1.0 2.0 0.00 0.00 0.00 87 1020.2
20260906011104 70 120 0.0 3.0 0.00 0.00 0.00 86 1020.2
20260906010604 70 121 0.0 2.0 0.00 0.00 0.00 86 1020.1
20260906010104 70 121 0.0 1.0 0.00 0.00 0.00 86 1020.1
20260906005104 70 121 0.0 0.0 0.00 0.00 0.00 87 1020.0
20260906004604 71 121 0.0 0.0 0.00 0.00 0.00 86 1020.0
20260906004104 71 121 0.0 0.0 0.00 0.00 0.00 86 1020.0
20260906003604 71 121 0.0 0.0 0.00 0.00 0.00 86 1020.1
20260906003104 71 121 0.0 0.0 0.00 0.00 0.00 86 1020.1
20260906002604 71 121 0.0 0.0 0.00 0.00 0.00 85 1020.1
20260906002104 71 121 0.0 0.0 0.00 0.00 0.00 85 1020.2
20260906001603 71 121 0.0 0.0 0.00 0.00 0.00 84 1020.2
20260906001103 71 121 0.0 0.0 0.00 0.00 0.00 84 1020.2
20260906000104 72 121 2.0 0.0 0.00 0.00 0.00 83 1020.0
20260905235604 72 121 2.0 2.0 0.00 0.00 0.00 83 1020.0
20260905235104 72 121 1.0 2.0 0.00 0.00 0.00 83 1020.0
20260905234604 72 121 1.0 3.0 0.00 0.00 0.00 82 1020.0
20260905234104 73 121 1.0 3.0 0.00 0.00 0.00 81 1020.0
20260905233604 73 250 1.0 2.0 0.00 0.00 0.00 81 1020.0
20260905233104 73 250 0.0 2.0 0.00 0.00 0.00 81 1020.0
20260905232603 73 249 0.0 2.0 0.00 0.00 0.00 81 1020.0
20260905232103 73 249 1.0 2.0 0.00 0.00 0.00 82 1020.2
20260905231604 73 249 1.0 2.0 0.00 0.00 0.00 83 1020.2
20260905231104 73 260 0.0 3.0 0.00 0.00 0.00 83 1020.2
20260905230604 73 152 0.0 2.0 0.00 0.00 0.00 83 1020.0
20260905230103 73 152 0.0 0.0 0.00 0.00 0.00 84 1020.0
20260905225604 73 152 0.0 0.0 0.00 0.00 0.00 83 1020.0
20260905225104 74 152 0.0 0.0 0.00 0.00 0.00 83 1019.9
20260905224104 74 152 0.0 1.0 0.00 0.00 0.00 82 1019.9
20260905223604 74 152 0.0 2.0 0.00 0.00 0.00 81 1019.7
20260905223104 74 152 0.0 1.0 0.00 0.00 0.00 81 1019.7
20260905222604 75 152 0.0 2.0 0.00 0.00 0.00 80 1019.7
20260905222104 75 152 0.0 0.0 0.00 0.00 0.00 80 1019.7
20260905221604 75 152 0.0 0.0 0.00 0.00 0.00 80 1019.7
20260905221104 75 152 0.0 1.0 0.00 0.00 0.00 79 1019.7
20260905220604 76 152 0.0 1.0 0.00 0.00 0.00 79 1019.4
20260905220104 76 152 0.0 1.0 0.00 0.00 0.00 78 1019.4
20260905215104 77 152 1.0 0.0 0.00 0.00 0.00 76 1019.4
20260905214604 77 152 1.0 0.0 0.00 0.00 0.00 76 1019.4
20260905214103 77 152 1.0 2.0 0.00 0.00 0.00 76 1019.4
20260905213604 77 152 1.0 3.0 0.00 0.00 0.00 76 1019.2
20260905213104 77 145 1.0 2.0 0.00 0.00 0.00 77 1019.2
20260905212604 77 160 1.0 2.0 0.00 0.00 0.00 77 1019.2
20260905212103 77 169 2.0 2.0 0.00 0.00 0.00 78 1018.9
20260905211604 77 160 2.0 2.0 0.00 0.00 0.00 78 1018.9
20260905211104 77 154 2.0 3.0 0.00 0.00 0.00 78 1018.9
20260905210604 78 135 2.0 5.0 0.00 0.00 0.00 78 1019.0
20260905210104 78 137 2.0 2.0 0.00 0.00 0.00 78 1019.0
20260905205604 78 137 2.0 2.0 0.00 0.00 0.00 78 1019.0
20260905205104 78 137 2.0 2.0 0.00 0.00 0.00 78 1019.0
20260905204604 78 132 2.0 6.0 0.00 0.00 0.00 78 1019.0
20260905204104 78 119 2.0 5.0 0.00 0.00 0.00 78 1019.0
20260905203604 78 133 2.0 6.0 0.00 0.00 0.00 77 1018.9
20260905203104 78 145 2.0 5.0 0.00 0.00 0.00 77 1018.9
20260905202604 78 153 2.0 5.0 0.00 0.00 0.00 77 1018.9
20260905201604 78 133 3.0 5.0 0.00 0.00 0.00 77 1018.8
20260905201104 78 143 3.0 8.0 0.00 0.00 0.00 77 1018.8
20260905200604 78 124 3.0 6.0 0.00 0.00 0.00 77 1018.8
20260905200104 78 122 3.0 5.0 0.00 0.00 0.00 77 1018.8
20260905195604 78 147 3.0 6.0 0.00 0.00 0.00 77 1018.8
20260905195104 78 138 3.0 5.0 0.00 0.00 0.00 77 1018.6
20260905194604 78 114 3.0 8.0 0.00 0.00 0.00 77 1018.6
20260905194104 78 138 2.0 2.0 0.00 0.00 0.00 77 1018.6
20260905193604 78 138 2.0 2.0 0.00 0.00 0.00 77 1018.5
20260905193104 78 138 2.0 2.0 0.00 0.00 0.00 77 1018.5
20260905192603 78 135 2.0 5.0 0.00 0.00 0.00 77 1018.5
20260905192104 78 162 2.0 2.0 0.00 0.00 0.00 76 1018.5
20260905191604 78 162 2.0 2.0 0.00 0.00 0.00 76 1018.5
20260905190604 79 136 2.0 5.0 0.00 0.00 0.00 76 1018.4
20260905190104 79 173 2.0 6.0 0.00 0.00 0.00 75 1018.4
20260905185604 79 149 2.0 5.0 0.00 0.00 0.00 75 1018.4
20260905185103 79 135 2.0 5.0 0.00 0.00 0.00 75 1018.2
20260905184604 79 135 2.0 5.0 0.00 0.00 0.00 74 1018.2
20260905184104 79 142 2.0 5.0 0.00 0.00 0.00 74 1018.2
20260905183604 80 128 2.0 3.0 0.00 0.00 0.00 73 1018.0
20260905183104 80 145 2.0 5.0 0.00 0.00 0.00 73 1018.0
20260905182604 80 121 2.0 5.0 0.00 0.00 0.00 72 1018.0
20260905182104 80 136 2.0 6.0 0.00 0.00 0.00 72 1017.7
20260905181604 80 146 2.0 5.0 0.00 0.00 0.00 71 1017.7
20260905181104 80 118 2.0 5.0 0.00 0.00 0.00 71 1017.7
20260905180604 81 138 2.0 6.0 0.00 0.00 0.00 70 1017.5
20260905180104 81 115 3.0 5.0 0.00 0.00 0.00 69 1017.5
20260905175604 81 143 3.0 6.0 0.00 0.00 0.00 69 1017.5
20260905175103 82 148 3.0 6.0 0.00 0.00 0.00 68 1017.4
20260905174604 82 129 3.0 8.0 0.00 0.00 0.00 67 1017.4
20260905173104 83 123 3.0 6.0 0.00 0.00 0.00 66 1017.3
20260905172603 83 129 2.0 6.0 0.00 0.00 0.00 65 1017.3
20260905172104 83 149 3.0 5.0 0.00 0.00 0.00 65 1017.2
20260905171604 83 120 3.0 7.0 0.00 0.00 0.00 65 1017.2
20260905171104 84 115 3.0 5.0 0.00 0.00 0.00 64 1017.2
20260905170604 84 125 3.0 7.0 0.00 0.00 0.00 64 1017.2
20260905170104 84 130 3.0 6.0 0.00 0.00 0.00 64 1017.2
20260905165604 84 128 3.0 8.0 0.00 0.00 0.00 63 1017.2
20260905165105 85 126 4.0 8.0 0.00 0.00 0.00 63 1017.2
20260905164603 85 111 5.0 7.0 0.00 0.00 0.00 62 1017.2
20260905163104 86 118 5.0 9.0 0.00 0.00 0.00 60 1017.1
20260905162604 86 138 5.0 9.0 0.00 0.00 0.00 59 1017.1
20260905162104 87 127 5.0 8.0 0.00 0.00 0.00 59 1017.0
20260905161604 87 107 5.0 8.0 0.00 0.00 0.00 58 1017.0
20260905161103 87 108 5.0 10.0 0.00 0.00 0.00 58 1017.0
20260905155604 88 138 5.0 9.0 0.00 0.00 0.00 56 1017.0
20260905155104 89 112 5.0 12.0 0.00 0.00 0.00 55 1017.0
20260905154603 89 118 5.0 9.0 0.00 0.00 0.00 54 1017.0
20260905154104 90 156 6.0 10.0 0.00 0.00 0.00 54 1017.0
20260905153604 90 137 6.0 9.0 0.00 0.00 0.00 53 1017.0
20260905152604 91 115 5.0 9.0 0.00 0.00 0.00 51 1017.0
20260905152104 91 115 5.0 12.0 0.00 0.00 0.00 50 1017.0
20260905151604 92 128 5.0 10.0 0.00 0.00 0.00 49 1017.0
20260905151104 92 114 5.0 12.0 0.00 0.00 0.00 48 1017.0
20260905150105 93 111 3.0 14.0 0.00 0.00 0.00 47 1017.1
20260905145604 93 143 3.0 7.0 0.00 0.00 0.00 47 1017.1
20260905144604 93 167 3.0 8.0 0.00 0.00 0.00 45 1017.1
20260905144103 93 152 5.0 7.0 0.00 0.00 0.00 43 1017.1
20260905143604 93 139 5.0 10.0 0.00 0.00 0.00 43 1017.1
20260905143104 93 122 5.0 10.0 0.00 0.00 0.00 45 1017.1
20260905142604 93 146 5.0 13.0 0.00 0.00 0.00 45 1017.1
20260905142104 93 118 5.0 8.0 0.00 0.00 0.00 44 1017.3
20260905141103 93 129 5.0 9.0 0.00 0.00 0.00 44 1017.3
20260905140604 93 127 6.0 7.0 0.00 0.00 0.00 45 1017.4
20260905140104 93 121 5.0 9.0 0.00 0.00 0.00 44 1017.4
20260905135604 93 114 5.0 12.0 0.00 0.00 0.00 43 1017.4
20260905135104 93 117 3.0 10.0 0.00 0.00 0.00 43 1017.5
20260905134603 93 109 3.0 8.0 0.00 0.00 0.00 45 1017.5
20260905134104 93 109 5.0 7.0 0.00 0.00 0.00 44 1017.5
20260905133604 92 122 6.0 10.0 0.00 0.00 0.00 46 1017.6
20260905133104 93 114 6.0 12.0 0.00 0.00 0.00 45 1017.6
20260905132604 93 120 6.0 9.0 0.00 0.00 0.00 44 1017.6
20260905132104 93 120 5.0 10.0 0.00 0.00 0.00 45 1017.8
20260905131604 93 109 5.0 10.0 0.00 0.00 0.00 45 1017.8
20260905131104 93 118 3.0 9.0 0.00 0.00 0.00 45 1017.8
20260905130604 93 123 2.0 8.0 0.00 0.00 0.00 45 1017.9
20260905130104 93 46 2.0 5.0 0.00 0.00 0.00 46 1017.9
20260905125604 93 149 2.0 6.0 0.00 0.00 0.00 45 1017.9
20260905125104 93 137 3.0 5.0 0.00 0.00 0.00 46 1017.9
20260905124604 93 129 3.0 6.0 0.00 0.00 0.00 46 1017.9
20260905124103 93 141 2.0 6.0 0.00 0.00 0.00 46 1017.9
20260905123604 93 117 2.0 6.0 0.00 0.00 0.00 46 1018.0
20260905123104 93 75 3.0 6.0 0.00 0.00 0.00 46 1018.0
20260905122603 93 155 3.0 6.0 0.00 0.00 0.00 47 1018.0
20260905122104 93 132 3.0 7.0 0.00 0.00 0.00 47 1018.1
20260905121604 92 133 3.0 6.0 0.00 0.00 0.00 47 1018.1
20260905120604 92 157 5.0 8.0 0.00 0.00 0.00 48 1018.2
20260905120103 92 133 3.0 12.0 0.00 0.00 0.00 48 1018.2
20260905115604 92 129 3.0 7.0 0.00 0.00 0.00 48 1018.2
20260905115104 92 154 4.0 5.0 0.00 0.00 0.00 49 1018.2
20260905114604 91 122 5.0 6.0 0.00 0.00 0.00 48 1018.2
20260905114104 91 108 3.0 8.0 0.00 0.00 0.00 48 1018.2
20260905113604 92 108 2.0 8.0 0.00 0.00 0.00 48 1018.3
20260905113104 92 120 2.0 6.0 0.00 0.00 0.00 49 1018.3
20260905112104 92 145 2.0 6.0 0.00 0.00 0.00 48 1018.5
20260905111604 92 138 2.0 6.0 0.00 0.00 0.00 49 1018.5
20260905111104 91 125 3.0 5.0 0.00 0.00 0.00 48 1018.5
20260905110604 91 138 3.0 7.0 0.00 0.00 0.00 49 1018.4
20260905110104 91 142 3.0 8.0 0.00 0.00 0.00 50 1018.4
20260905105604 90 148 3.0 6.0 0.00 0.00 0.00 50 1018.4
20260905105104 90 146 3.0 7.0 0.00 0.00 0.00 50 1018.5
20260905104604 90 111 3.0 9.0 0.00 0.00 0.00 50 1018.5
20260905104104 90 302 3.0 7.0 0.00 0.00 0.00 50 1018.5
20260905103604 91 136 3.0 6.0 0.00 0.00 0.00 50 1018.5
20260905103104 91 186 2.0 6.0 0.00 0.00 0.00 50 1018.5
20260905102604 91 114 2.0 6.0 0.00 0.00 0.00 50 1018.5
20260905102104 90 134 2.0 5.0 0.00 0.00 0.00 50 1018.7
20260905101604 90 153 2.0 7.0 0.00 0.00 0.00 52 1018.7
20260905100604 89 107 2.0 6.0 0.00 0.00 0.00 51 1018.7
20260905095604 89 102 3.0 5.0 0.00 0.00 0.00 52 1018.7
20260905095104 89 108 3.0 8.0 0.00 0.00 0.00 51 1018.7
20260905094604 89 132 3.0 5.0 0.00 0.00 0.00 52 1018.7
20260905094104 89 124 3.0 8.0 0.00 0.00 0.00 53 1018.7
20260905093604 88 114 3.0 7.0 0.00 0.00 0.00 53 1018.8
20260905092604 89 105 2.0 8.0 0.00 0.00 0.00 53 1018.8
20260905092104 89 117 2.0 8.0 0.00 0.00 0.00 52 1018.7
20260905091605 88 138 2.0 6.0 0.00 0.00 0.00 52 1018.7
20260905091104 88 147 2.0 6.0 0.00 0.00 0.00 53 1018.7
20260905090604 88 291 2.0 6.0 0.00 0.00 0.00 54 1018.7
20260905085604 87 73 2.0 5.0 0.00 0.00 0.00 55 1018.7
20260905085104 87 208 2.0 6.0 0.00 0.00 0.00 56 1018.5
20260905084604 87 110 2.0 5.0 0.00 0.00 0.00 55 1018.5
20260905084104 86 125 3.0 6.0 0.00 0.00 0.00 56 1018.5
20260905083604 86 214 3.0 6.0 0.00 0.00 0.00 57 1018.4
20260905083104 86 122 2.0 6.0 0.00 0.00 0.00 57 1018.4
20260905082604 86 148 2.0 6.0 0.00 0.00 0.00 57 1018.4
20260905082104 85 113 2.0 5.0 0.00 0.00 0.00 58 1018.4
20260905081604 85 138 2.0 6.0 0.00 0.00 0.00 58 1018.4
20260905080604 84 128 2.0 6.0 0.00 0.00 0.00 59 1018.5
20260905080104 84 109 2.0 5.0 0.00 0.00 0.00 59 1018.5
20260905075603 84 130 2.0 7.0 0.00 0.00 0.00 60 1018.5
20260905075104 84 122 2.0 5.0 0.00 0.00 0.00 60 1018.4
20260905074604 83 141 2.0 5.0 0.00 0.00 0.00 60 1018.4
20260905073604 83 159 2.0 5.0 0.00 0.00 0.00 61 1018.3
20260905073103 83 114 2.0 6.0 0.00 0.00 0.00 62 1018.3
20260905072604 82 114 2.0 6.0 0.00 0.00 0.00 63 1018.3
20260905072104 81 133 1.0 5.0 0.00 0.00 0.00 65 1018.6
20260905071603 80 291 1.0 2.0 0.00 0.00 0.00 66 1018.6
20260905071105 80 285 0.0 3.0 0.00 0.00 0.00 66 1018.6
20260905070104 78 104 0.0 2.0 0.00 0.00 0.00 70 1018.5
20260905065604 77 105 0.0 2.0 0.00 0.00 0.00 71 1018.5
20260905065104 77 103 1.0 2.0 0.00 0.00 0.00 73 1018.4
20260905064604 76 115 1.0 2.0 0.00 0.00 0.00 74 1018.4
20260905064103 75 110 1.0 2.0 0.00 0.00 0.00 74 1018.4
20260905063604 75 109 1.0 2.0 0.00 0.00 0.00 75 1018.3
20260905063104 75 109 0.0 2.0 0.00 0.00 0.00 75 1018.3
20260905062604 74 110 0.0 2.0 0.00 0.00 0.00 76 1018.3
20260905062103 74 110 0.0 2.0 0.00 0.00 0.00 77 1018.3
20260905061604 74 110 0.0 2.0 0.00 0.00 0.00 78 1018.3
20260905061104 73 110 0.0 2.0 0.00 0.00 0.00 78 1018.3